Location: Staunton
(38.1490°N, 79.0720°W)
Time: 23:50:23
(UTC-05:00)

ISS - Pass Details

Date: 08 December 2019
Orbit: 411 x 421 km, 51.6° (Epoch: 15 December)

Event Time Altitude Azimuth Distance (km) Brightness Sun altitude
Rises 18:37:37 0° 311° (NW) 2,358 0.6 -19.4°
Reaches altitude 10° 18:39:43 10° 313° (NW) 1,494 -0.5 -19.8°
Enters shadow 18:42:36 59° 342° (NNW) 484 -3.5 -20.3°
